Location: ??????
(30.5519°N, 47.7720°E)
Time: 17:55:21
(UTC+00:00)

Cosmos 1833 Rocket - Pass Details

Date: 24 January 2021
Orbit: 833 x 839 km, 71.0° (Epoch: 01 March)

Event Time Altitude Azimuth Distance (km) Brightness Sun altitude
Rises 16:48:35 0° 337° (NNW) 3,383 6.0 -32.3°
Reaches altitude 10° 16:51:02 10° 336° (NNW) 2,447 5.3 -32.8°
Enters shadow 16:53:10 24° 333° (NNW) 1,664 4.4 -33.2°
